Theta_e
344 341 343 339 339 337 337 340 339 339 340 337 334 335 334 334 337 334 334 339 337 337 339 341 342 343 346 346 349 348 348 347 346 344 344 344 345 345 345 345 346 344 342
343 339 340 341 344 343 338 337 337 337 335 333 335 336 336 334 334 337 334 337 339 339 339 342 342 344 346 346 348 348 347 346 345 346 344 344 344 345 346 345 343 341 340
345 343 339 344 344 343 342 339 339 338 333 334 335 333 334 337 336 337 337 334 336 340 342 341 341 344 344 344 348 349 347 346 346 345 343 343 343 343 344 343 341 339 337
343 341 341 344 346 344 343 340 335 334 334 330 331 335 333 335 335 336 333 335 333 337 340 343 342 344 343 343 349 349 348 346 345 343 343 342 342 341 342 342 339 336 334
342 343 342 343 345 343 339 337 336 339 334 332 332 335 333 333 334 332 335 334 338 336 336 341 344 344 344 345 347 349 348 346 344 343 342 342 342 341 341 339 336 334 333
341 343 342 341 342 338 336 337 337 336 336 336 329 333 334 333 333 332 335 333 334 336 339 342 340 338 344 341 347 350 349 348 345 343 341 340 340 340 338 337 335 333 332
343 342 340 339 339 339 338 336 335 329 333 336 333 330 334 333 334 331 332 331 334 336 339 338 341 342 343 339 342 349 350 347 343 340 338 337 337 338 337 336 335 332 332
341 341 339 337 338 339 335 333 333 331 331 336 328 329 322 327 329 330 331 333 335 336 336 338 340 344 348 343 345 345 347 346 343 340 338 336 336 337 336 335 333 332 330
339 339 338 337 337 336 334 335 334 331 329 331 332 330 321 316 321 329 331 332 336 338 339 340 342 343 347 348 345 345 341 341 341 339 335 334 336 335 333 333 331 330 330
336 336 337 336 337 336 335 334 334 332 331 328 333 335 333 331 320 318 328 336 340 340 341 342 347 345 346 346 344 340 337 337 338 336 333 331 331 329 332 332 331 332 330
336 333 335 335 335 338 335 334 332 331 335 333 332 331 329 327 326 327 319 326 337 342 340 347 344 345 344 344 342 337 333 333 333 333 333 331 330 328 333 332 332 331 330
334 334 333 334 335 335 334 335 333 333 335 335 337 330 326 325 323 321 329 331 330 335 342 344 342 337 338 340 338 333 331 330 328 328 330 331 330 331 333 332 332 331 330
335 334 333 334 335 336 335 335 334 334 335 333 333 331 331 329 334 332 331 331 327 334 334 333 334 332 331 335 334 331 329 326 324 325 327 329 331 332 333 333 331 331 331
332 334 333 335 335 334 335 336 339 337 335 336 334 336 335 331 335 340 335 333 327 328 328 325 328 328 327 327 328 328 326 324 323 323 323 324 327 329 330 331 331 331 331
331 332 333 333 334 334 333 335 336 334 335 334 336 336 335 341 338 337 342 336 336 323 319 322 322 326 326 326 327 327 326 325 324 321 321 322 323 323 323 326 327 327 328
331 331 331 333 333 333 333 335 335 335 334 333 334 335 336 333 338 339 342 341 339 330 320 323 322 323 325 326 326 324 324 324 322 321 321 320 320 320 322 323 324 325 328
331 330 330 330 330 331 335 336 335 333 331 334 334 333 334 336 339 339 338 337 334 329 319 321 323 325 323 322 323 323 325 325 324 321 321 319 318 319 320 322 324 325 323
330 329 329 329 329 332 333 333 331 330 331 331 333 333 332 334 336 337 334 333 331 327 321 318 321 322 322 323 323 325 326 328 326 323 320 318 317 318 319 318 317 315 314
329 329 330 328 330 332 333 332 330 331 331 332 333 334 334 335 334 334 332 330 329 326 323 320 320 323 322 322 324 325 326 327 329 322 317 315 315 315 314 313 312 310 308
329 332 330 331 331 331 332 332 328 331 331 332 333 335 334 335 335 333 331 328 325 323 322 322 321 321 322 324 324 321 320 323 323 324 321 319 317 313 312 311 310 308 305
331 332 331 331 332 332 330 333 333 333 329 330 333 332 332 326 324 329 329 329 325 323 322 321 320 320 320 321 319 320 318 321 322 323 321 321 319 316 311 310 309 307 304
331 333 331 330 332 329 307 313 323 334 332 332 329 328 328 326 318 314 318 320 323 323 321 320 320 318 319 321 322 317 317 317 315 326 322 320 320 315 312 311 305 304 303
336 333 331 332 332 329 306 306 311 334 335 334 333 332 328 326 325 327 313 313 314 313 318 323 320 320 320 325 323 320 323 323 321 327 326 317 319 314 311 306 303 302 301
334 333 333 333 332 326 306 305 310 335 336 334 334 333 330 331 329 329 328 328 326 325 324 324 322 323 324 325 329 328 329 331 328 326 327 314 318 311 310 307 302 301 300
336 335 334 333 332 328 304 303 316 334 332 333 333 333 333 331 309 310 330 325 322 319 313 312 314 312 310 312 323 329 326 323 319 320 326 318 317 312 309 305 304 301 300
334 334 333 334 322 330 304 301 315 333 332 331 334 332 310 323 305 308 331 326 321 321 324 323 326 314 319 323 312 337 330 323 321 320 328 320 319 314 309 310 305 303 302
Wind_Speed
7 7 5 5 7 5 7 3 4 0 3 5 9 7 9 7 4 6 4 9 8 9 9 12 12 12 10 10 13 20 22 23 22 21 21 20 21 19 18 17 18 17 16
6 7 6 6 7 8 8 6 4 5 4 5 6 5 8 6 7 5 7 8 16 13 13 14 13 12 11 10 14 20 22 24 21 21 20 20 21 19 19 20 19 18 17
8 8 8 5 7 4 7 5 7 5 7 7 5 5 6 6 4 2 2 6 13 15 16 16 14 13 12 10 14 19 22 24 23 20 19 21 21 20 19 19 18 17 17
9 8 8 7 7 6 6 7 5 7 9 7 5 3 7 5 8 8 7 9 8 7 13 16 14 14 12 11 14 19 20 22 22 19 20 22 20 20 18 18 18 18 18
9 7 7 7 8 6 7 7 8 8 8 6 4 1 6 6 6 10 12 9 7 5 7 17 15 13 11 10 15 19 21 22 21 22 23 24 24 21 19 18 17 18 18
6 4 6 7 7 6 6 6 9 7 6 6 6 3 7 8 5 7 5 6 9 10 10 11 10 10 9 7 13 18 23 24 22 22 20 21 23 23 20 18 18 18 16
5 5 5 7 6 6 7 8 7 5 6 6 4 4 4 7 6 8 6 9 6 8 9 9 8 8 8 7 8 17 24 28 27 24 20 20 23 22 21 19 17 17 15
6 3 5 6 8 6 8 8 8 6 4 5 5 5 5 5 8 9 7 3 8 5 8 11 9 5 7 6 8 19 24 32 31 28 24 21 23 21 19 18 17 15 14
6 4 5 6 6 6 3 6 7 9 6 6 10 4 4 6 9 5 8 9 7 7 7 9 7 6 9 8 13 21 26 28 31 33 27 21 19 20 19 18 15 12 12
3 2 4 6 6 4 3 6 7 7 9 7 6 8 9 4 5 7 4 6 7 9 10 7 6 8 11 11 18 21 24 28 30 30 30 24 23 20 18 18 17 13 12
3 6 5 5 6 2 4 4 5 5 5 6 6 8 9 6 6 6 9 9 6 7 6 5 5 7 11 13 12 18 25 28 28 29 29 25 24 21 19 18 17 14 12
3 4 5 3 1 3 3 5 4 6 4 5 5 7 5 6 4 4 3 7 7 6 4 5 8 6 7 10 16 25 26 27 27 27 27 24 22 20 19 17 15 13 11
4 6 3 2 1 3 5 3 5 4 5 3 5 5 4 5 3 4 2 4 4 2 3 5 5 7 7 8 13 23 29 28 24 22 21 20 18 15 16 14 13 12 10
4 6 3 4 2 4 4 3 4 3 4 3 5 5 3 3 2 3 3 5 5 4 4 4 3 9 9 11 20 31 19 26 23 16 11 14 14 12 13 12 10 8 7
7 5 3 3 4 7 3 2 1 1 2 3 4 3 4 3 6 1 3 8 5 6 3 3 3 8 11 12 16 17 19 23 16 14 14 16 14 12 12 9 8 8 8
4 4 3 4 2 4 2 2 1 3 4 4 5 3 5 4 1 2 3 3 3 9 7 4 6 9 14 11 16 13 14 16 12 14 13 14 12 12 11 9 10 7 5
5 5 5 4 3 2 1 1 3 3 4 4 4 5 4 2 2 4 5 5 7 10 13 8 8 12 15 14 12 12 11 7 8 13 15 12 11 10 10 9 10 8 7
5 5 4 4 4 5 2 2 4 2 5 5 5 5 4 4 5 7 7 7 7 14 16 19 10 10 12 13 13 11 9 8 9 10 12 10 10 9 8 8 10 9 8
6 6 5 4 6 5 5 7 6 3 0 3 3 5 7 9 9 8 9 10 10 10 12 16 8 9 9 10 8 11 9 9 6 13 12 11 10 9 9 11 10 10 12
7 4 4 4 6 6 4 7 6 4 3 2 2 6 7 9 11 12 11 12 12 11 14 11 12 11 10 8 9 10 9 7 8 9 8 10 10 11 11 12 13 15 13
3 3 4 5 6 5 6 5 6 8 7 5 8 9 10 9 7 12 11 12 15 11 11 11 10 10 9 8 10 8 9 8 9 8 8 8 7 7 8 10 13 14 13
6 4 3 6 5 7 9 11 8 6 7 6 7 8 7 11 13 11 14 13 13 16 14 12 10 11 9 10 9 9 9 9 8 7 9 9 8 7 7 7 13 12 12
4 7 7 5 8 8 8 9 9 5 8 8 9 10 9 8 11 15 17 17 16 14 10 13 15 11 10 8 11 10 10 9 8 8 8 9 8 8 8 7 11 11 11
4 3 4 9 6 7 4 5 8 7 6 8 9 12 8 13 11 13 15 15 13 10 13 8 9 9 7 7 8 10 11 10 10 8 8 9 8 8 8 7 6 9 9
6 6 5 8 8 8 3 2 7 8 5 9 10 9 10 14 12 12 16 15 12 9 11 12 10 8 9 10 8 8 9 9 10 10 8 8 8 9 7 7 7 7 8
7 7 6 6 10 9 4 2 5 6 9 7 9 10 13 12 9 10 14 14 13 12 13 10 9 4 9 7 4 7 7 8 8 9 7 7 9 8 6 8 8 7 6
Wind_Direction
237 254 258 290 290 277 279 279 298 99 240 255 266 238 257 290 299 212 220 165 183 186 210 238 245 249 245 231 210 196 188 183 191 187 192 201 196 172 160 150 138 128 124
242 257 254 238 239 253 261 269 245 263 266 246 226 230 215 243 265 192 184 195 196 188 209 229 235 240 240 233 210 203 191 185 191 195 192 193 178 156 146 142 135 130 133
235 255 268 263 260 260 251 256 281 269 259 256 221 212 203 227 187 175 238 241 194 196 202 212 224 233 232 234 214 204 192 187 190 196 192 180 161 150 145 139 136 138 132
240 265 259 260 258 247 236 239 244 248 254 265 238 151 227 195 211 187 230 234 244 185 202 206 209 224 227 233 211 202 195 190 183 189 190 163 151 148 139 135 138 133 138
239 240 256 272 271 248 231 226 228 235 259 239 300 232 236 223 179 215 218 210 242 267 205 185 198 213 227 236 214 199 189 185 178 187 167 158 145 136 133 130 142 142 132
241 241 264 264 255 239 236 228 233 230 229 250 263 228 240 205 245 230 251 204 220 213 240 175 188 204 187 194 204 195 188 179 166 169 156 144 139 133 132 140 143 136 132
242 269 262 259 260 258 246 240 236 244 236 244 233 238 247 258 225 202 230 216 212 213 216 246 200 185 157 181 217 197 188 166 148 144 144 161 140 131 135 138 134 132 136
275 264 239 246 250 249 234 229 227 227 233 222 204 206 195 216 236 226 214 214 197 223 195 235 217 198 147 184 184 185 168 147 147 147 144 147 125 128 130 130 133 131 134
260 238 253 250 254 243 261 239 233 226 225 211 217 216 179 212 186 195 215 213 184 225 224 230 207 200 170 155 137 137 146 145 143 135 126 131 128 126 130 121 125 138 152
303 273 258 233 225 243 231 238 226 225 218 214 200 225 252 238 197 178 204 240 215 210 208 223 215 206 172 161 149 143 143 137 137 130 131 139 129 128 131 140 150 140 156
259 264 198 207 219 198 242 226 216 198 219 204 206 214 207 217 210 239 172 197 210 224 212 199 178 168 155 153 146 146 145 145 139 134 132 137 137 147 156 154 141 156 152
213 254 209 208 141 225 232 224 175 186 207 210 211 251 211 230 242 196 160 178 187 186 178 171 149 135 133 145 139 142 138 135 134 132 132 134 148 168 153 141 148 150 146
191 205 185 197 207 229 237 202 202 203 194 209 225 244 214 211 276 332 205 167 160 130 77 67 102 103 101 133 141 131 125 121 115 124 136 145 161 147 136 147 150 153 153
191 145 193 120 218 202 216 214 229 213 224 205 233 240 233 224 256 245 215 160 149 100 67 70 90 105 104 115 131 121 115 115 125 129 130 138 121 134 133 135 140 135 106
118 176 144 175 210 210 196 228 289 238 265 234 249 234 246 276 245 190 209 227 145 142 83 78 98 114 114 115 111 115 122 128 123 122 134 126 123 121 116 109 115 106 97
150 167 186 195 181 223 148 128 243 229 225 244 239 200 209 258 98 204 160 176 100 136 117 113 98 114 117 106 101 107 116 114 114 123 131 124 134 130 135 156 99 80 128
171 200 194 229 225 173 74 209 188 231 180 237 133 220 213 240 138 112 91 93 109 111 120 100 120 120 112 113 112 115 126 132 120 117 110 120 134 126 129 136 145 159 105
190 215 202 226 244 91 81 167 135 158 178 199 220 221 165 178 101 108 94 85 114 133 134 125 133 115 118 119 127 121 111 114 123 125 131 127 121 129 129 129 108 107 107
197 214 189 190 73 62 81 90 59 142 230 196 209 192 174 129 116 116 104 99 96 113 124 122 124 120 115 131 115 109 115 110 110 109 103 111 108 109 105 107 114 103 94
180 206 168 104 114 107 84 108 121 122 47 59 196 115 121 122 129 122 117 107 111 119 119 108 120 130 127 119 112 122 110 114 136 135 108 100 104 97 104 101 102 105 102
152 141 140 134 84 114 69 51 96 108 110 56 56 55 64 61 110 130 132 130 132 133 125 124 120 119 125 129 130 127 128 143 132 141 127 129 124 112 110 89 102 104 104
158 134 122 114 183 85 38 29 20 107 117 115 102 79 80 84 70 82 102 117 127 137 133 133 134 134 138 141 142 143 142 150 143 141 137 133 133 129 138 92 99 110 109
155 159 159 116 101 101 43 17 358 85 108 117 116 124 102 89 91 102 92 98 92 87 109 139 136 145 148 160 133 143 145 149 147 147 133 136 154 118 103 112 111 114 109
119 125 132 122 133 105 74 5 330 94 98 112 125 112 115 117 109 115 112 113 113 106 116 116 125 144 152 161 152 153 170 128 124 147 148 143 138 134 112 108 114 116 116
155 156 171 152 150 128 124 331 319 103 103 102 108 109 122 114 119 131 123 111 105 97 91 114 139 190 178 178 166 154 155 147 153 150 179 142 155 133 143 147 150 145 143
160 141 149 162 126 123 149 331 327 100 114 108 110 102 73 99 96 137 119 120 126 137 139 143 173 136 181 146 194 189 164 159 167 156 188 163 149 155 168 161 159 170 177